Weather History for Bridgeport, CT

Change the Weather History Date:

Sunday, January 20, 2013

  Actual Average Record
Temperature  
Mean Temperature 42 °F 30 °F  
Max Temperature 53 °F 37 °F 54 °F (1991)
Min Temperature 30 °F 23 °F 1 °F (1994)
Degree Days  
Heating Degree Days 23 35  
Month to date heating degree days 572 696  
Since 1 July heating degree days 2268 2589  
Cooling Degree Days 0 0  
Month to date cooling degree days 0 0  
Year to date cooling degree days 0 0  
Moisture  
Dew Point 25 °F    
Average Humidity 50    
Maximum Humidity 73    
Minimum Humidity 26    
Precipitation  
Precipitation 0.00 in 0.09 in 1.62 in (1978)
Month to date precipitation 1.15 2.06  
Year to date precipitation 1.15 2.06  
Snow  
Snow 0.00 in 0.20 in 15.70 in (1978)
Month to date snowfall 3.5 5.1  
Since 1 July snowfall 19.7 10.9  
Snow Depth 0.00 in    
Sea Level Pressure  
Sea Level Pressure 29.81 in    
Wind  
Wind Speed 15 mph (WSW)    
Max Wind Speed 26 mph    
Max Gust Speed 35 mph    
Visibility 10 miles    
Events      
T = Trace of Precipitation, MM = Missing Value Source: NWS Daily Summary

Daily Weather History Graph

Daily Weather History Graph

Search for Another Location

Airport:

Trip Planner

Search our weather history database for the weather conditions in past years. The results will help you decide how hot, cold, wet, or windy it might be!

Date:

Astronomy

Jan. 20, 2013 Rise Set
Actual Time 7:12 AM EST 4:54 PM EST
Civil Twilight 6:42 AM EST 5:24 PM EST
Nautical Twilight 6:09 AM EST 5:58 PM EST
Astronomical Twilight 5:36 AM EST 6:31 PM EST
Moon 11:54 AM EST (1/20) 1:42 AM EST (1/20)
Length of Visible Light 10h 41m
Length of Day
9h 41m
Waxing Gibbous, 66% of the Moon is Illuminated
Jan 20
Waxing Gibbous
Jan 26
Full
Feb 3
Last Quarter
Feb 10
New
Feb 17
First Quarter

Hourly Weather History & Observations

Time (EST) Temp. Windchill Dew Point Humidity Pressure Visibility Wind Dir Wind Speed Gust Speed Precip Events Conditions
12:52 AM 43.0 °F 35.7 °F 33.1 °F 68% 29.89 in 10.0 mi SW 15.0 mph - N/A   Clear
1:52 AM 42.1 °F 34.9 °F 33.1 °F 70% 29.86 in 10.0 mi SSW 13.8 mph - N/A   Clear
2:52 AM 42.1 °F 34.5 °F 33.1 °F 70% 29.84 in 10.0 mi SSW 15.0 mph - N/A   Clear
3:52 AM 41.0 °F 34.3 °F 33.1 °F 73% 29.82 in 10.0 mi SSW 11.5 mph - N/A   Clear
4:52 AM 41.0 °F 33.9 °F 33.1 °F 73% 29.79 in 10.0 mi SW 12.7 mph - N/A   Clear
5:52 AM 41.0 °F 33.1 °F 32.0 °F 70% 29.76 in 10.0 mi SW 15.0 mph - N/A   Clear
6:52 AM 41.0 °F 33.9 °F 33.1 °F 73% 29.75 in 10.0 mi SW 12.7 mph - N/A   Clear
7:52 AM 42.1 °F 35.7 °F 33.1 °F 70% 29.73 in 10.0 mi SW 11.5 mph - N/A   Clear
8:52 AM 43.0 °F 36.8 °F 34.0 °F 71% 29.74 in 10.0 mi SW 11.5 mph - N/A   Clear
9:52 AM 45.0 °F 38.9 °F 34.0 °F 65% 29.74 in 10.0 mi SW 12.7 mph - N/A   Clear
10:52 AM 46.9 °F - 35.1 °F 63% 29.72 in 10.0 mi SW 11.5 mph - N/A   Clear
11:52 AM 48.9 °F - 33.1 °F 54% 29.68 in 10.0 mi SW 17.3 mph - N/A   Clear
12:52 PM 52.0 °F - 30.9 °F 45% 29.66 in 10.0 mi SW 17.3 mph 31.1 mph N/A   Clear
1:52 PM 52.0 °F - 25.0 °F 35% 29.67 in 10.0 mi WSW 17.3 mph 28.8 mph N/A   Partly Cloudy
2:52 PM 53.1 °F - 25.0 °F 34% 29.69 in 10.0 mi West 15.0 mph 27.6 mph N/A   Clear
3:52 PM 52.0 °F - 18.0 °F 26% 29.71 in 10.0 mi WSW 15.0 mph 27.6 mph N/A   Clear
4:52 PM 48.9 °F - 18.0 °F 29% 29.76 in 10.0 mi West 15.0 mph 25.3 mph N/A   Clear
5:52 PM 45.0 °F 37.6 °F 15.1 °F 30% 29.82 in 10.0 mi WNW 17.3 mph 32.2 mph N/A   Clear
6:52 PM 39.9 °F 30.2 °F 12.0 °F 32% 29.87 in 10.0 mi WNW 20.7 mph 27.6 mph N/A   Clear
7:52 PM 37.0 °F 27.7 °F 10.0 °F 33% 29.91 in 10.0 mi WNW 16.1 mph 21.9 mph N/A   Clear
8:52 PM 35.1 °F 25.5 °F 12.9 °F 40% 29.95 in 10.0 mi WNW 15.0 mph 21.9 mph N/A   Clear
9:52 PM 34.0 °F 22.7 °F 12.0 °F 40% 29.97 in 10.0 mi NNW 19.6 mph 28.8 mph N/A   Clear
10:52 PM 32.0 °F 21.6 °F 12.0 °F 44% 29.99 in 10.0 mi NW 15.0 mph 21.9 mph N/A   Clear
11:52 PM 30.0 °F 19.5 °F 8.1 °F 40% 30.01 in 10.0 mi WNW 13.8 mph 19.6 mph N/A   Clear